| time (UTC) | temp F | wind direction | speed MPH | gust MPH | rain 1hr in | rain 24hr in | rain mn in | humidity % | barometer mb |
| 20260503005906 | 47 | 147 | 0.0 | 1.0 | 0.00 | 0.20 | 0.00 | 89 | 1010.5 |
| 20260503005339 | 47 | 147 | 0.0 | 1.0 | 0.00 | 0.20 | 0.00 | 89 | 1010.5 |
| 20260503004835 | 48 | 147 | 0.0 | 1.0 | 0.00 | 0.20 | 0.00 | 89 | 1010.5 |
| 20260503004401 | 48 | 147 | 0.0 | 2.0 | 0.00 | 0.20 | 0.00 | 89 | 1010.5 |
| 20260503003839 | 48 | 147 | 0.0 | 2.0 | 0.00 | 0.20 | 0.00 | 89 | 1010.6 |
| 20260503003339 | 48 | 147 | 0.0 | 1.0 | 0.00 | 0.20 | 0.00 | 89 | 1010.6 |
| 20260503002840 | 48 | 147 | 0.0 | 0.0 | 0.00 | 0.20 | 0.00 | 89 | 1010.6 |
| 20260503002343 | 48 | 147 | 0.0 | 0.0 | 0.00 | 0.20 | 0.00 | 89 | 1010.6 |
| 20260503001900 | 48 | 147 | 0.0 | 0.0 | 0.00 | 0.20 | 0.00 | 89 | 1010.6 |
| 20260503001412 | 48 | 147 | 0.0 | 0.0 | 0.00 | 0.20 | 0.00 | 89 | 1010.6 |
| 20260503000849 | 48 | 147 | 0.0 | 0.0 | 0.00 | 0.20 | 0.00 | 89 | 1010.7 |
| 20260503000344 | 48 | 147 | 0.0 | 0.0 | 0.00 | 0.20 | 0.00 | 89 | 1010.7 |
| 20260502235847 | 48 | 147 | 0.0 | 0.0 | 0.00 | 0.20 | 0.00 | 89 | 1010.7 |
| 20260502235346 | 48 | 147 | 0.0 | 0.0 | 0.00 | 0.20 | 0.00 | 89 | 1010.7 |
| 20260502234839 | 48 | 147 | 0.0 | 2.0 | 0.00 | 0.20 | 0.00 | 89 | 1010.7 |
| 20260502234338 | 49 | 147 | 1.0 | 2.0 | 0.00 | 0.20 | 0.00 | 88 | 1010.7 |
| 20260502233838 | 49 | 147 | 2.0 | 2.0 | 0.00 | 0.20 | 0.00 | 88 | 1010.7 |
| 20260502233348 | 49 | 147 | 1.0 | 2.0 | 0.00 | 0.20 | 0.00 | 88 | 1010.7 |
| 20260502232847 | 49 | 147 | 1.0 | 2.0 | 0.00 | 0.20 | 0.00 | 88 | 1010.7 |
| 20260502232344 | 49 | 147 | 0.0 | 3.0 | 0.00 | 0.20 | 0.00 | 88 | 1010.8 |
| 20260502231845 | 49 | 147 | 2.0 | 3.0 | 0.00 | 0.20 | 0.00 | 88 | 1010.7 |
| 20260502231342 | 49 | 128 | 2.0 | 3.0 | 0.00 | 0.20 | 0.00 | 88 | 1010.7 |
| 20260502230836 | 49 | 138 | 2.0 | 4.0 | 0.00 | 0.20 | 0.00 | 88 | 1010.7 |
| 20260502230334 | 49 | 130 | 2.0 | 4.0 | 0.00 | 0.20 | 0.00 | 88 | 1010.7 |
| 20260502225857 | 50 | 145 | 2.0 | 3.0 | 0.00 | 0.20 | 0.04 | 88 | 1010.7 |
| 20260502225340 | 50 | 145 | 2.0 | 3.0 | 0.00 | 0.20 | 0.04 | 88 | 1010.7 |
| 20260502224841 | 50 | 145 | 2.0 | 4.0 | 0.00 | 0.20 | 0.04 | 88 | 1010.7 |
| 20260502224335 | 50 | 145 | 2.0 | 4.0 | 0.00 | 0.20 | 0.04 | 88 | 1010.8 |
| 20260502223855 | 50 | 153 | 3.0 | 5.0 | 0.00 | 0.20 | 0.04 | 88 | 1010.9 |
| 20260502223356 | 50 | 153 | 2.0 | 3.0 | 0.00 | 0.20 | 0.04 | 88 | 1010.8 |
| 20260502222849 | 50 | 162 | 1.0 | 3.0 | 0.00 | 0.20 | 0.04 | 88 | 1010.8 |
| 20260502222340 | 50 | 138 | 2.0 | 4.0 | 0.00 | 0.20 | 0.04 | 88 | 1010.9 |
| 20260502221838 | 50 | 139 | 2.0 | 4.0 | 0.00 | 0.20 | 0.04 | 88 | 1010.9 |
| 20260502221349 | 50 | 141 | 2.0 | 3.0 | 0.00 | 0.20 | 0.04 | 88 | 1010.9 |
| 20260502220843 | 50 | 148 | 2.0 | 3.0 | 0.00 | 0.20 | 0.04 | 88 | 1010.9 |
| 20260502220342 | 50 | 163 | 2.0 | 5.0 | 0.00 | 0.20 | 0.04 | 88 | 1011.0 |
| 20260502215837 | 51 | 150 | 3.0 | 5.0 | 0.00 | 0.20 | 0.04 | 88 | 1010.9 |
| 20260502215354 | 51 | 150 | 3.0 | 5.0 | 0.00 | 0.20 | 0.04 | 88 | 1010.9 |
| 20260502214840 | 51 | 150 | 3.0 | 5.0 | 0.00 | 0.20 | 0.04 | 88 | 1010.9 |
| 20260502214353 | 51 | 153 | 3.0 | 6.0 | 0.00 | 0.20 | 0.04 | 88 | 1011.0 |
| 20260502213911 | 51 | 185 | 3.0 | 6.0 | 0.00 | 0.20 | 0.04 | 87 | 1011.0 |
| 20260502213340 | 51 | 167 | 3.0 | 6.0 | 0.00 | 0.20 | 0.04 | 87 | 1011.0 |
| 20260502212835 | 51 | 161 | 3.0 | 7.0 | 0.00 | 0.20 | 0.04 | 87 | 1011.0 |
| 20260502212340 | 51 | 153 | 4.0 | 8.0 | 0.00 | 0.20 | 0.04 | 87 | 1011.0 |
| 20260502211836 | 51 | 139 | 4.0 | 8.0 | 0.00 | 0.20 | 0.04 | 87 | 1011.0 |
| 20260502211334 | 51 | 142 | 3.0 | 7.0 | 0.00 | 0.20 | 0.04 | 87 | 1011.0 |
| 20260502210854 | 51 | 139 | 3.0 | 7.0 | 0.00 | 0.20 | 0.04 | 87 | 1011.1 |
| 20260502210337 | 51 | 171 | 3.0 | 7.0 | 0.00 | 0.20 | 0.04 | 87 | 1011.0 |
| 20260502205838 | 52 | 141 | 4.0 | 7.0 | 0.00 | 0.20 | 0.04 | 87 | 1011.1 |
| 20260502205343 | 52 | 161 | 6.0 | 8.0 | 0.00 | 0.20 | 0.04 | 86 | 1011.1 |
| 20260502204857 | 52 | 165 | 4.0 | 8.0 | 0.00 | 0.20 | 0.04 | 86 | 1011.1 |
| 20260502204334 | 52 | 154 | 3.0 | 5.0 | 0.00 | 0.20 | 0.04 | 86 | 1011.0 |
| 20260502203855 | 52 | 137 | 3.0 | 4.0 | 0.00 | 0.20 | 0.04 | 86 | 1011.1 |
| 20260502203342 | 52 | 147 | 3.0 | 4.0 | 0.00 | 0.20 | 0.04 | 85 | 1011.0 |
| 20260502202841 | 52 | 130 | 3.0 | 6.0 | 0.00 | 0.20 | 0.04 | 85 | 1011.0 |
| 20260502202338 | 52 | 136 | 3.0 | 7.0 | 0.00 | 0.20 | 0.04 | 85 | 1011.0 |
| 20260502201836 | 53 | 145 | 3.0 | 7.0 | 0.00 | 0.20 | 0.04 | 85 | 1011.0 |
| 20260502201354 | 53 | 157 | 3.0 | 5.0 | 0.00 | 0.20 | 0.04 | 85 | 1011.0 |
| 20260502200853 | 53 | 154 | 3.0 | 6.0 | 0.00 | 0.20 | 0.04 | 85 | 1011.0 |
| 20260502200343 | 53 | 156 | 3.0 | 7.0 | 0.00 | 0.20 | 0.04 | 84 | 1011.0 |
| 20260502195844 | 53 | 140 | 5.0 | 8.0 | 0.00 | 0.20 | 0.04 | 84 | 1011.0 |
| 20260502195344 | 53 | 135 | 5.0 | 8.0 | 0.00 | 0.20 | 0.04 | 84 | 1010.9 |
| 20260502194838 | 53 | 144 | 3.0 | 9.0 | 0.00 | 0.20 | 0.04 | 84 | 1010.9 |
| 20260502194342 | 53 | 155 | 6.0 | 10.0 | 0.00 | 0.20 | 0.04 | 84 | 1010.9 |
| 20260502193840 | 54 | 132 | 7.0 | 11.0 | 0.00 | 0.20 | 0.04 | 83 | 1010.9 |
| 20260502193356 | 54 | 139 | 4.0 | 11.0 | 0.00 | 0.20 | 0.04 | 83 | 1010.8 |
| 20260502192915 | 54 | 148 | 5.0 | 9.0 | 0.00 | 0.20 | 0.04 | 83 | 1010.8 |
| 20260502192355 | 54 | 130 | 5.0 | 10.0 | 0.00 | 0.20 | 0.04 | 83 | 1010.9 |
| 20260502191850 | 54 | 151 | 6.0 | 10.0 | 0.00 | 0.20 | 0.04 | 82 | 1010.8 |
| 20260502191346 | 54 | 148 | 5.0 | 9.0 | 0.00 | 0.20 | 0.04 | 82 | 1010.9 |
| 20260502190841 | 54 | 163 | 6.0 | 10.0 | 0.00 | 0.20 | 0.04 | 81 | 1010.9 |
| 20260502190336 | 54 | 146 | 5.0 | 10.0 | 0.00 | 0.20 | 0.04 | 81 | 1010.9 |
| 20260502185859 | 54 | 150 | 5.0 | 8.0 | 0.00 | 0.20 | 0.04 | 81 | 1010.8 |
| 20260502185339 | 54 | 145 | 4.0 | 8.0 | 0.00 | 0.20 | 0.04 | 80 | 1010.8 |
| 20260502184839 | 54 | 165 | 5.0 | 10.0 | 0.00 | 0.20 | 0.04 | 80 | 1010.8 |
| 20260502184342 | 54 | 180 | 5.0 | 10.0 | 0.00 | 0.20 | 0.04 | 79 | 1010.8 |
| 20260502183848 | 55 | 188 | 6.0 | 11.0 | 0.00 | 0.20 | 0.04 | 79 | 1010.9 |
| 20260502183405 | 54 | 185 | 6.0 | 11.0 | 0.00 | 0.20 | 0.04 | 79 | 1010.9 |
| 20260502182839 | 55 | 138 | 7.0 | 11.0 | 0.00 | 0.20 | 0.04 | 79 | 1010.8 |
| 20260502182402 | 55 | 198 | 5.0 | 9.0 | 0.00 | 0.20 | 0.04 | 79 | 1010.8 |
| 20260502181836 | 55 | 150 | 6.0 | 10.0 | 0.00 | 0.20 | 0.04 | 79 | 1010.8 |
| 20260502181334 | 54 | 178 | 5.0 | 10.0 | 0.00 | 0.20 | 0.04 | 79 | 1010.8 |
| 20260502180858 | 55 | 176 | 5.0 | 11.0 | 0.00 | 0.20 | 0.04 | 80 | 1010.8 |
| 20260502180355 | 55 | 163 | 6.0 | 11.0 | 0.00 | 0.20 | 0.04 | 80 | 1010.8 |
| 20260502170351 | 56 | 184 | 7.0 | 13.0 | 0.00 | 0.20 | 0.04 | 79 | 1010.9 |
| 20260502163914 | 56 | 176 | 8.0 | 14.0 | 0.00 | 0.20 | 0.04 | 78 | 1010.9 |
| 20260502163344 | 56 | 120 | 8.0 | 12.0 | 0.00 | 0.20 | 0.04 | 79 | 1010.9 |
| 20260502162842 | 56 | 179 | 6.0 | 15.0 | 0.00 | 0.20 | 0.04 | 79 | 1010.9 |
| 20260502162338 | 56 | 142 | 8.0 | 14.0 | 0.00 | 0.20 | 0.04 | 78 | 1010.8 |
| 20260502161855 | 56 | 146 | 8.0 | 13.0 | 0.00 | 0.20 | 0.04 | 79 | 1010.9 |
| 20260502161401 | 56 | 153 | 7.0 | 13.0 | 0.00 | 0.20 | 0.04 | 78 | 1011.0 |
| 20260502160859 | 57 | 130 | 8.0 | 13.0 | 0.00 | 0.20 | 0.04 | 78 | 1011.0 |
| 20260502160348 | 57 | 123 | 7.0 | 13.0 | 0.00 | 0.20 | 0.04 | 78 | 1011.0 |
| 20260502151847 | 57 | 188 | 8.0 | 16.0 | 0.00 | 0.20 | 0.04 | 77 | 1011.3 |
| 20260502151346 | 57 | 191 | 9.0 | 16.0 | 0.00 | 0.20 | 0.04 | 77 | 1011.3 |
| 20260502150849 | 57 | 165 | 9.0 | 12.0 | 0.00 | 0.20 | 0.04 | 77 | 1011.3 |
| 20260502150342 | 57 | 210 | 7.0 | 12.0 | 0.00 | 0.20 | 0.04 | 76 | 1011.3 |
| 20260502130349 | 57 | 138 | 9.0 | 17.0 | 0.00 | 0.20 | 0.04 | 80 | 1012.4 |
| 20260502123408 | 56 | 148 | 8.0 | 15.0 | 0.00 | 0.20 | 0.04 | 81 | 1012.7 |
| 20260502122818 | 56 | 138 | 8.0 | 16.0 | 0.00 | 0.20 | 0.04 | 80 | 1012.8 |
| 20260502121907 | 56 | 163 | 8.0 | 13.0 | 0.00 | 0.20 | 0.04 | 81 | 1012.8 |
| 20260502121402 | 56 | 157 | 10.0 | 14.0 | 0.00 | 0.20 | 0.04 | 80 | 1012.9 |
| 20260502120914 | 57 | 188 | 9.0 | 16.0 | 0.00 | 0.20 | 0.04 | 80 | 1013.0 |
| 20260502120407 | 57 | 153 | 11.0 | 18.0 | 0.00 | 0.20 | 0.04 | 79 | 1013.0 |
| 20260502115907 | 56 | 170 | 9.0 | 15.0 | 0.00 | 0.20 | 0.04 | 81 | 1013.1 |
| 20260502115404 | 55 | 161 | 10.0 | 15.0 | 0.00 | 0.20 | 0.04 | 82 | 1013.2 |
| 20260502114921 | 55 | 179 | 7.0 | 16.0 | 0.00 | 0.20 | 0.04 | 82 | 1013.3 |
| 20260502114357 | 55 | 148 | 11.0 | 16.0 | 0.00 | 0.20 | 0.04 | 81 | 1013.3 |
| 20260502113856 | 55 | 188 | 9.0 | 16.0 | 0.00 | 0.20 | 0.04 | 83 | 1013.3 |
| 20260502113355 | 54 | 150 | 11.0 | 15.0 | 0.00 | 0.20 | 0.04 | 82 | 1013.2 |
| 20260502112917 | 55 | 182 | 8.0 | 15.0 | 0.00 | 0.20 | 0.04 | 82 | 1013.2 |
| 20260502112355 | 54 | 149 | 7.0 | 14.0 | 0.00 | 0.20 | 0.04 | 83 | 1013.2 |
| 20260502111856 | 55 | 157 | 7.0 | 12.0 | 0.00 | 0.20 | 0.04 | 82 | 1013.1 |
| 20260502111411 | 55 | 179 | 8.0 | 12.0 | 0.00 | 0.20 | 0.04 | 82 | 1013.1 |
| 20260502110909 | 55 | 164 | 7.0 | 14.0 | 0.00 | 0.20 | 0.04 | 82 | 1013.2 |
| 20260502110401 | 55 | 154 | 9.0 | 14.0 | 0.00 | 0.20 | 0.04 | 81 | 1013.2 |
| 20260502105907 | 55 | 168 | 8.0 | 16.0 | 0.00 | 0.20 | 0.04 | 82 | 1013.2 |
| 20260502105429 | 55 | 165 | 9.0 | 15.0 | 0.00 | 0.20 | 0.04 | 82 | 1013.2 |
| 20260502104911 | 55 | 174 | 10.0 | 15.0 | 0.00 | 0.20 | 0.04 | 81 | 1013.2 |
| 20260502104408 | 55 | 138 | 9.0 | 16.0 | 0.00 | 0.20 | 0.04 | 81 | 1013.2 |
| 20260502103922 | 55 | 151 | 11.0 | 15.0 | 0.00 | 0.20 | 0.04 | 81 | 1013.3 |
| 20260502103416 | 55 | 170 | 6.0 | 15.0 | 0.00 | 0.20 | 0.04 | 84 | 1013.3 |
| 20260502102858 | 54 | 161 | 10.0 | 15.0 | 0.00 | 0.20 | 0.04 | 84 | 1013.3 |
| 20260502102420 | 54 | 176 | 6.0 | 11.0 | 0.00 | 0.20 | 0.04 | 85 | 1013.4 |
| 20260502101859 | 54 | 148 | 8.0 | 13.0 | 0.00 | 0.20 | 0.04 | 85 | 1013.4 |
| 20260502101427 | 54 | 180 | 7.0 | 12.0 | 0.00 | 0.20 | 0.04 | 84 | 1013.5 |
| 20260502100901 | 54 | 160 | 9.0 | 12.0 | 0.00 | 0.20 | 0.04 | 84 | 1013.6 |
| 20260502100400 | 54 | 177 | 5.0 | 12.0 | 0.00 | 0.20 | 0.04 | 84 | 1013.6 |
| 20260502091410 | 53 | 162 | 8.0 | 11.0 | 0.00 | 0.20 | 0.04 | 85 | 1013.9 |
| 20260502090904 | 53 | 169 | 7.0 | 14.0 | 0.00 | 0.20 | 0.04 | 86 | 1013.9 |
| 20260502090431 | 53 | 180 | 7.0 | 14.0 | 0.00 | 0.20 | 0.04 | 86 | 1013.9 |
| 20260502071400 | 51 | 129 | 5.0 | 10.0 | 0.20 | 0.20 | 0.04 | 91 | 1014.2 |
| 20260502070855 | 51 | 146 | 5.0 | 11.0 | 0.20 | 0.20 | 0.04 | 91 | 1014.2 |
| 20260502070357 | 50 | 123 | 5.0 | 11.0 | 0.20 | 0.20 | 0.04 | 91 | 1014.1 |
| 20260502065859 | 50 | 141 | 4.0 | 9.0 | 0.20 | 0.20 | 0.04 | 91 | 1014.2 |
| 20260502065419 | 50 | 143 | 5.0 | 9.0 | 0.20 | 0.20 | 0.04 | 91 | 1014.2 |
| 20260502064912 | 50 | 144 | 5.0 | 11.0 | 0.20 | 0.20 | 0.04 | 91 | 1014.2 |
| 20260502064407 | 50 | 151 | 6.0 | 11.0 | 0.20 | 0.20 | 0.04 | 91 | 1014.2 |
| 20260502063855 | 50 | 162 | 5.0 | 9.0 | 0.20 | 0.20 | 0.04 | 91 | 1014.2 |
| 20260502063355 | 50 | 144 | 5.0 | 11.0 | 0.16 | 0.16 | 0.03 | 91 | 1014.3 |
| 20260502062853 | 50 | 165 | 4.0 | 11.0 | 0.16 | 0.16 | 0.03 | 91 | 1014.2 |
| 20260502062435 | 50 | 152 | 5.0 | 10.0 | 0.16 | 0.16 | 0.03 | 91 | 1014.3 |
| 20260502061929 | 50 | 147 | 6.0 | 10.0 | 0.08 | 0.08 | 0.02 | 91 | 1014.3 |
| 20260502061411 | 50 | 134 | 5.0 | 9.0 | 0.00 | 0.00 | 0.00 | 91 | 1014.3 |
| 20260502060905 | 50 | 162 | 5.0 | 9.0 | 0.00 | 0.00 | 0.00 | 90 | 1014.4 |
| 20260502060428 | 50 | 159 | 5.0 | 8.0 | 0.00 | 0.00 | 0.00 | 91 | 1014.4 |
| 20260502055906 | 50 | 158 | 6.0 | 8.0 | 0.00 | 0.00 | 0.00 | 91 | 1014.3 |
| 20260502055402 | 50 | 143 | 5.0 | 8.0 | 0.00 | 0.00 | 0.00 | 91 | 1014.3 |
| 20260502054857 | 50 | 142 | 4.0 | 8.0 | 0.00 | 0.00 | 0.00 | 91 | 1014.3 |
| 20260502054352 | 50 | 154 | 4.0 | 8.0 | 0.00 | 0.00 | 0.00 | 91 | 1014.3 |
| 20260502053911 | 50 | 185 | 5.0 | 8.0 | 0.00 | 0.00 | 0.00 | 91 | 1014.4 |
| 20260502053428 | 50 | 148 | 5.0 | 9.0 | 0.00 | 0.00 | 0.00 | 91 | 1014.4 |
| 20260502052901 | 50 | 146 | 5.0 | 10.0 | 0.00 | 0.00 | 0.00 | 91 | 1014.4 |
| 20260502052355 | 50 | 140 | 6.0 | 10.0 | 0.00 | 0.00 | 0.00 | 90 | 1014.3 |
| 20260502051900 | 50 | 167 | 4.0 | 9.0 | 0.00 | 0.00 | 0.00 | 90 | 1014.3 |
| 20260502051415 | 50 | 99 | 5.0 | 8.0 | 0.00 | 0.00 | 0.00 | 90 | 1014.4 |
| 20260502050911 | 50 | 151 | 3.0 | 8.0 | 0.00 | 0.00 | 0.00 | 90 | 1014.4 |
| 20260502050408 | 50 | 152 | 3.0 | 8.0 | 0.00 | 0.00 | 0.00 | 90 | 1014.5 |
| 20260502045907 | 50 | 150 | 4.0 | 7.0 | 0.00 | 0.00 | 0.00 | 90 | 1014.5 |
| 20260502045406 | 50 | 153 | 4.0 | 8.0 | 0.00 | 0.00 | 0.00 | 90 | 1014.4 |
| 20260502044907 | 50 | 123 | 3.0 | 8.0 | 0.00 | 0.00 | 0.00 | 91 | 1014.5 |
| 20260502044404 | 50 | 141 | 4.0 | 7.0 | 0.00 | 0.00 | 0.00 | 90 | 1014.5 |
| 20260502043856 | 50 | 144 | 4.0 | 8.0 | 0.00 | 0.00 | 0.00 | 91 | 1014.6 |
| 20260502043417 | 50 | 126 | 4.0 | 8.0 | 0.00 | 0.00 | 0.00 | 91 | 1014.6 |
| 20260502042908 | 50 | 153 | 5.0 | 8.0 | 0.00 | 0.00 | 0.00 | 90 | 1014.6 |
| 20260502042404 | 50 | 168 | 5.0 | 11.0 | 0.00 | 0.00 | 0.00 | 90 | 1014.6 |
| 20260502041900 | 50 | 142 | 6.0 | 11.0 | 0.00 | 0.00 | 0.00 | 90 | 1014.7 |
| 20260502041356 | 50 | 141 | 6.0 | 9.0 | 0.00 | 0.00 | 0.00 | 90 | 1014.7 |
| 20260502040929 | 50 | 156 | 4.0 | 9.0 | 0.00 | 0.00 | 0.00 | 90 | 1014.8 |
| 20260502040410 | 50 | 177 | 5.0 | 9.0 | 0.00 | 0.00 | 0.00 | 90 | 1014.8 |
| 20260502035930 | 50 | 179 | 6.0 | 9.0 | 0.00 | 0.00 | 0.00 | 90 | 1014.8 |
| 20260502035353 | 50 | 156 | 5.0 | 8.0 | 0.00 | 0.00 | 0.00 | 90 | 1014.9 |
| 20260502034857 | 50 | 161 | 5.0 | 8.0 | 0.00 | 0.00 | 0.00 | 90 | 1014.9 |
| 20260502034358 | 50 | 138 | 4.0 | 8.0 | 0.00 | 0.00 | 0.00 | 90 | 1014.9 |
| 20260502033852 | 50 | 150 | 4.0 | 8.0 | 0.00 | 0.00 | 0.00 | 90 | 1014.9 |
| 20260502033419 | 49 | 140 | 5.0 | 8.0 | 0.00 | 0.00 | 0.00 | 90 | 1015.0 |
| 20260502032913 | 49 | 160 | 4.0 | 7.0 | 0.00 | 0.00 | 0.00 | 90 | 1015.0 |
| 20260502032352 | 49 | 148 | 4.0 | 7.0 | 0.00 | 0.00 | 0.00 | 90 | 1015.1 |
| 20260502031853 | 50 | 144 | 4.0 | 8.0 | 0.00 | 0.00 | 0.00 | 90 | 1015.1 |
| 20260502031354 | 50 | 152 | 3.0 | 8.0 | 0.00 | 0.00 | 0.00 | 90 | 1015.2 |
| 20260502030909 | 50 | 118 | 4.0 | 7.0 | 0.00 | 0.00 | 0.00 | 90 | 1015.1 |
| 20260502030430 | 50 | 147 | 5.0 | 8.0 | 0.00 | 0.00 | 0.00 | 90 | 1015.1 |
| 20260502025853 | 50 | 160 | 5.0 | 8.0 | 0.00 | 0.00 | 0.00 | 90 | 1015.2 |
| 20260502025354 | 50 | 155 | 4.0 | 8.0 | 0.00 | 0.00 | 0.00 | 90 | 1015.2 |
| 20260502024857 | 50 | 121 | 4.0 | 10.0 | 0.00 | 0.00 | 0.00 | 90 | 1015.2 |
| 20260502024422 | 50 | 143 | 5.0 | 10.0 | 0.00 | 0.00 | 0.00 | 90 | 1015.3 |
| 20260502023913 | 50 | 145 | 5.0 | 8.0 | 0.00 | 0.00 | 0.00 | 89 | 1015.4 |
| 20260502023414 | 50 | 147 | 5.0 | 7.0 | 0.00 | 0.00 | 0.00 | 89 | 1015.4 |
| 20260502022853 | 50 | 180 | 4.0 | 7.0 | 0.00 | 0.00 | 0.00 | 89 | 1015.5 |
| 20260502022410 | 50 | 157 | 4.0 | 7.0 | 0.00 | 0.00 | 0.00 | 89 | 1015.5 |
| 20260502021907 | 50 | 150 | 3.0 | 5.0 | 0.00 | 0.00 | 0.00 | 88 | 1015.5 |
| 20260502021409 | 50 | 155 | 3.0 | 4.0 | 0.00 | 0.00 | 0.00 | 89 | 1015.6 |
| 20260502020908 | 50 | 184 | 3.0 | 7.0 | 0.00 | 0.00 | 0.00 | 88 | 1015.7 |
| 20260502020407 | 50 | 187 | 4.0 | 7.0 | 0.00 | 0.00 | 0.00 | 88 | 1015.7 |
| 20260502015910 | 50 | 138 | 3.0 | 7.0 | 0.00 | 0.00 | 0.00 | 88 | 1015.8 |
| 20260502015402 | 50 | 166 | 4.0 | 7.0 | 0.00 | 0.00 | 0.00 | 88 | 1015.9 |
| 20260502014924 | 50 | 147 | 4.0 | 7.0 | 0.00 | 0.00 | 0.00 | 88 | 1016.0 |
| 20260502014359 | 50 | 136 | 4.0 | 7.0 | 0.00 | 0.00 | 0.00 | 88 | 1016.0 |
| 20260502013900 | 51 | 159 | 4.0 | 7.0 | 0.00 | 0.00 | 0.00 | 88 | 1016.0 |
| 20260502013414 | 51 | 151 | 4.0 | 7.0 | 0.00 | 0.00 | 0.00 | 88 | 1016.0 |
| 20260502012909 | 51 | 144 | 4.0 | 7.0 | 0.00 | 0.00 | 0.00 | 88 | 1016.1 |
| 20260502012409 | 51 | 118 | 3.0 | 6.0 | 0.00 | 0.00 | 0.00 | 88 | 1016.1 |
| 20260502011905 | 51 | 143 | 3.0 | 6.0 | 0.00 | 0.00 | 0.00 | 88 | 1016.1 |
| 20260502011418 | 51 | 129 | 2.0 | 4.0 | 0.00 | 0.00 | 0.00 | 88 | 1016.2 |
| 20260502010936 | 51 | 114 | 2.0 | 4.0 | 0.00 | 0.00 | 0.00 | 88 | 1016.2 |
| 20260502010411 | 51 | 161 | 0.0 | 0.0 | 0.00 | 0.00 | 0.00 | 88 | 1016.3 |